Location: Laterina
(43.5167°N, 11.7167°E)
Time: 12:57:30
(UTC+00:00)

Cosmos 2026 Rocket - Pass Details

Date: 25 January 2021
Orbit: 940 x 1000 km, 82.9° (Epoch: 28 February)

Event Time Altitude Azimuth Distance (km) Brightness Sun altitude
Rises 04:29:07 0° 356° (N) 3,715 7.0 -23.0°
Reaches altitude 10° 04:31:44 10° 1° (N) 2,768 6.3 -22.5°
Maximum altitude 04:37:56 52° 77° (ENE) 1,224 4.8 -21.4°
Drops below altitude 10° 04:44:07 10° 154° (SSE) 2,763 6.8 -20.3°
Sets 04:46:42 0° 159° (SSE) 3,707 7.4 -19.8°
